Lid_Strength_Index
11 11 12 12 11 11 11 11 11 12 12 12 12 12 12 13 13 12 12 12 13 13 13 13 12 12 11 11 10 10 10 10 11 11 10 9 10 10 9 8 7 7 6
11 11 12 12 12 12 12 12 12 12 12 13 13 13 13 13 13 13 13 13 14 14 14 13 13 12 12 12 12 12 11 11 12 13 12 12 11 10 9 9 8 7 6
12 12 12 13 13 13 13 13 13 13 14 14 14 14 14 14 14 13 13 14 14 14 14 14 14 14 14 14 13 12 12 11 11 13 13 12 11 10 10 9 8 8 8
12 13 13 14 14 14 14 14 15 15 15 15 15 15 15 15 14 14 14 15 15 14 13 14 14 14 15 14 13 13 13 13 13 13 13 13 11 10 10 10 10 9 9
13 13 14 15 15 15 16 16 16 16 16 15 16 16 15 15 14 15 15 15 15 15 15 14 14 14 13 12 13 13 13 13 13 13 13 12 12 11 11 11 11 10 10
14 14 15 15 16 17 17 17 17 17 16 16 16 16 16 15 14 13 13 15 15 15 15 15 14 14 13 12 11 11 11 12 13 12 12 12 12 12 11 11 11 11 12
15 16 16 16 17 17 17 17 16 16 16 16 16 16 17 17 14 13 13 15 15 15 15 14 14 14 13 14 12 10 10 9 9 10 12 12 12 11 11 10 10 11 11
16 16 17 17 17 17 17 17 17 17 17 17 17 17 17 17 14 13 13 15 15 15 15 15 15 14 13 13 12 12 11 11 11 10 10 10 10 10 10 10 10 10 9
16 17 17 17 18 18 18 18 17 18 18 19 18 20 20 19 14 13 13 15 15 15 14 15 15 13 12 11 12 12 11 10 9 9 9 10 10 10 10 10 10 10 11
16 17 17 18 19 19 18 18 18 20 18 18 18 20 20 20 16 14 13 16 17 15 15 14 13 11 11 10 10 10 11 11 10 16 16 14 12 12 10 11 10 11 11
18 19 19 19 19 19 19 20 22 23 21 25 22 21 21 21 20 14 14 15 16 16 16 15 12 11 10 9 8 10 10 9 10 19 18 16 14 12 12 11 11 11 11
19 20 20 21 19 20 22 22 24 26 26 26 25 23 21 21 17 15 14 14 14 16 15 14 13 10 9 8 8 8 8 9 12 19 18 16 14 11 11 12 12 12 12
21 22 23 21 21 21 22 22 24 27 26 24 22 23 22 20 20 16 16 14 13 14 14 12 10 10 9 9 9 9 10 10 13 17 16 13 11 9 11 11 11 11 12
22 22 22 22 22 23 21 21 24 26 25 24 26 26 24 23 22 20 17 16 14 13 13 13 11 10 9 9 11 11 12 11 11 14 14 11 10 11 13 12 13 11 15
21 21 22 22 23 23 23 23 22 23 23 28 28 27 25 23 22 15 14 14 14 13 12 13 13 13 12 13 16 14 13 12 10 13 14 13 11 12 12 11 12 14 15
21 22 22 22 23 24 25 25 21 20 19 18 18 19 23 17 15 14 13 12 11 11 13 13 13 12 13 13 15 14 13 11 10 10 12 12 11 13 12 12 13 16 17
22 23 24 24 25 26 27 28 28 26 21 20 19 18 17 16 15 14 13 12 12 13 16 14 13 12 12 12 13 14 13 11 10 10 9 10 13 14 13 15 15 16 17
25 25 25 26 27 28 28 28 29 29 31 29 22 19 17 17 15 14 13 15 19 18 17 14 15 14 12 11 12 12 11 11 11 11 10 11 14 14 13 15 15 19 19
27 27 27 27 28 28 28 29 29 30 30 29 27 23 22 17 15 15 14 24 20 18 18 18 16 15 13 12 10 11 11 11 11 11 12 13 16 16 16 16 16 17 20
28 27 28 30 30 30 29 30 29 29 29 30 29 28 26 23 22 23 25 24 21 20 20 19 18 17 15 13 12 11 13 12 12 12 13 14 15 17 17 17 17 19 21
29 29 29 30 32 32 30 30 28 30 30 29 27 24 17 22 24 21 22 23 22 22 21 20 19 18 16 14 14 14 15 13 13 13 14 15 16 19 19 16 17 19 21
28 29 30 30 30 29 31 29 29 30 29 28 26 25 19 26 26 25 23 23 23 23 22 21 20 19 17 16 15 14 14 14 14 15 16 18 19 20 20 19 19 21 22
29 30 31 31 31 29 30 30 29 29 29 30 29 28 28 29 28 26 25 24 24 24 22 22 21 20 20 18 18 17 15 15 16 18 16 18 20 20 20 20 22 23 23
29 29 28 28 28 28 27 29 30 29 30 31 33 31 28 27 27 26 26 26 25 25 25 23 21 20 20 19 19 19 19 19 19 18 17 18 19 19 20 22 22 24 22
29 28 28 27 28 28 29 30 30 32 33 32 31 31 30 28 28 27 27 26 26 25 25 23 23 20 19 20 20 20 19 19 19 17 17 17 18 19 20 22 23 24 24
28 28 28 29 30 32 31 30 30 31 31 31 30 30 29 29 28 27 26 25 25 24 24 24 24 23 20 19 20 19 20 18 19 18 18 19 19 20 22 23 23 23 23